Location: Aufkirchen
(47.9603°N, 11.3653°E)
Time: 09:53:20
(UTC+02:00)

Altair - Pass Details

Date: 05 August 2021
Orbit: 1501 x 1682 km, 47.2° (Epoch: 18 September)

Event Time Altitude Azimuth Distance (km) Brightness Sun altitude
Exits shadow 02:23:21 35° 217° (SW) 2,299 7.9 -23.6°
Maximum altitude 02:27:33 61° 153° (SSE) 1,703 7.4 -23.4°
Drops below altitude 10° 02:36:35 10° 76° (ENE) 3,667 9.9 -22.9°
Sets 02:39:37 0° 74° (ENE) 4,642 10.5 -22.7°
